{"data":{"norad_id":59587,"epoch":"2026-05-25T04:17:04.636032Z","epoch_age_seconds":59314,"freshness":"FRESH","line1":"1 59587U 24077A   26145.17852588  .00015317  00000+0  41381-3 0  9992","line2":"2 59587  97.3488 229.1607 0010140 116.3461 243.8827 15.37784820116197","mean_motion":15.3778482,"eccentricity":0.001014,"inclination_deg":97.3488,"raan_deg":229.1607,"arg_perigee_deg":116.3461,"mean_anomaly_deg":243.8827,"bstar":0.00041381,"rev_number":11619,"period_min":93.641189669176,"perigee_km":445.73487018484,"apogee_km":459.58772913655,"semimajor_km":6830.7982996607,"source":"CELESTRAK","updated_at":"2026-05-25T13:38:01.519412Z"}}